Weather in Abha

Saudi Arabia     18°17′32″N   42°46′04″E
temp.,
°C
wind,
m/s
gust,
m/s
humid.,
%
clouds,
%
prec.,
mm/h
press.,
hPa
HPBL,
m
16 may, mon
mon1600:00+19ne46140 0.0 101797
03:00+18nne33130 0.0 101632
06:00+16ne33140 0.0 101823
09:00+22ne71080 0.0 10171141
12:00+27ne6850 0.0 10141837
15:00+28ne7841 0.0 10122577
18:00+26ne8955 0.0 10111424
21:00+23ne61170 0.0 1015233
17 may, tue
tue1700:00+20ene4690 0.0 101578
03:00+18ene3390 0.0 101416
06:00+17ne22110 0.0 101512
09:00+24ne71070 0.0 10151494
12:00+27ne81060 0.0 10132243
15:00+29ene9950 0.0 10102655
18:00+26ene8883 0.0 10112273
21:00+22e611125 0.0 1014284
18 may, wed
wed1800:00+20e581710 0.0 1015136
03:00+18e3319100 0.0 101421
06:00+18ene22197 0.0 101512
09:00+24ene791310 0.0 10161877
12:00+28e781071 0.0 10132784
15:00+29ene88945 0.0 10103442
18:00+27e87108 0.0 10113122
21:00+24e6111557 0.0 1014308
19 may, thu
thu1900:00+21e510194 0.0 1015212
03:00+19e46203 0.0 101573
06:00+19e33195 0.0 101621
09:00+25ene79125 0.0 10162186
12:00+29ene88105 0.0 10142883
15:00+30ene99828 0.0 10113380
18:00+28ene991027 0.0 10113158
21:00+24e7121252 0.0 1014342
20 may, fri
fri2000:00+22e34154 0.0 101543
03:00+20ene22160 0.0 101311
06:00+20e33160 0.0 101516
09:00+27e710100 0.0 10142380
12:00+30ene91074 0.0 10123328
15:00+31ene101065 0.0 10103768
18:00+29ene91075 0.0 10102562
21:00+25e71390 0.0 1013322